SCP
0 0 0 0 0 0 0 0 0 0 0 0 0 0 0 0 0 0 0 0 0 0 0 0 0 0 0 0 0 0 0 0 0 0 0 0 0 0
0 0 0 0 0 0 0 0 0 0 0 0 0 0 0 0 0 0 0 0 0 0 0 0 0 0 0 0 0 0 0 0 0 0 0 0 0 0
0 0 0 0 0 0 0 0 0 0 0 0 0 0 0 0 0 0 0 0 0 0 0 0 0 0 0 0 0 0 0 0 0 0 0 0 0 0
0 0 0 0 0 0 0 0 0 0 0 0 0 0 0 0 0 0 0 0 0 0 0 0 0 0 0 0 0 0 0 0 0 0 0 0 0 0
0 0 0 0 0 0 0 0 0 0 0 0 0 0 0 0 0 0 0 0 0 0 0 0 0 0 0 0 0 0 0 0 0 0 0 0 0 0
0 0 0 0 0 0 0 0 0 0 0 0 0 0 0 0 0 0 0 0 0 0 0 0 0 0 0 0 0 0 0 0 0 0 0 0 0 0
0 0 0 0 0 0 0 0 0 0 0 0 0 0 0 0 0 0 0 0 0 0 0 0 0 0 0 0 0 0 0 0 0 0 0 0 0 0
0 0 0 0 0 0 0 0 0 0 0 0 0 0 0 0 0 0 0 0 0 0 0 0 0 0 0 0 0 0 0 0 0 0 0 0 0 0
0 0 0 0 0 0 0 0 0 0 0 0 0 0 0 0 0 0 0 0 0 0 0 0 0 0 0 0 0 0 0 0 0 0 0 0 0 0
0 0 0 0 0 0 0 0 0 0 0 0 0 0 0 0 0 0 0 0 0 0 0 0 0 0 0 0 0 0 0 0 0 0 0 0 0 0
0 0 0 0 0 0 0 0 0 0 0 0 0 0 0 0 0 0 0 0 0 0 0 0 0 0 0 0 0 0 0 0 0 0 0 0 0 0
0 0 0 0 0 0 0 0 0 0 0 0 0 0 0 0 0 0 0 0 0 0 0 0 0 0 0 0 0 0 0 0 0 0 0 0 0 0
0 0 0 0 0 0 0 0 0 0 0 0 0 0 0 0 0 0 0 0 0 0 0 0 0 0 0 0 0 0 0 0 0 0 0 0 0 0
0 0 0 0 0 0 0 0 0 0 0 0 0 0 0 0 0 0 0 0 0 0 0 0 0 0 0 0 0 0 0 0 0 0 0 0 0 0
0 0 0 0 0 0 0 0 0 0 0 0 0 0 0 0 0 0 0 0 0 0 0 0 0 0 0 0 0 0 0 0 0 0 0 0 0 0
0 0 0 0 0 0 0 0 0 0 0 0 0 0 0 0 0 0 0 0 0 0 0 0 0 0 0 0 0 0 0 0 0 0 0 0 0 0
0 0 0 0 0 0 0 0 0 0 0 0 0 0 0 0 0 0 0 0 0 0 0 0 0 0 0 0 0 0 0 0 0 0 0 0 0 0
0 0 0 0 0 0 0 0 0 0 0 0 0 0 0 0 0 0 0 0 0 0 0 0 0 0 0 0 0 0 0 0 0 0 0 0 0 0
0 0 0 0 0 0 0 0 0 0 0 0 0 0 0 0 0 0 0 0 0 0 0 0 0 0 0 0 0 0 0 0 0 0 0 0 0 0
0 0 0 0 0 0 0 0 0 0 0 0 0 0 0 0 0 0 0 0 0 0 0 0 0 0 0 0 0 0 0 0 0 0 0 0 0 0
0 0 0 0 0 0 0 0 0 0 0 0 0 0 0 0 0 0 0 0 0 0 0 0 0 0 0 0 0 0 0 0 0 0 0 0 0 0
0 0 0 0 0 0 0 0 0 0 0 0 0 0 0 0 0 0 0 0 0 0 0 0 0 0 0 0 0 0 0 0 0 0 0 0 0 0
0 0 0 0 0 0 0 0 0 0 0 0 0 0 0 0 0 0 0 0 0 0 0 0 0 0 0 0 0 0 0 0 0 0 0 0 0 0
Wind_Speed
4 4 4 3 3 3 3 3 4 3 1 1 1 1 1 3 4 4 5 10 11 11 10 10 9 9 9 9 8 8 8 7 7 8 8 8 8 8
3 4 4 3 2 2 2 3 3 3 1 1 1 2 2 3 6 5 7 11 11 10 9 9 8 8 8 8 8 8 8 8 8 8 8 8 8 7
4 4 4 4 3 2 2 2 2 1 2 1 2 2 3 4 4 4 5 5 6 10 9 8 7 7 7 7 7 6 7 7 7 7 7 7 7 7
5 5 5 3 3 3 2 1 0 1 3 3 2 2 3 4 4 4 4 4 5 10 9 8 7 6 6 6 6 5 5 5 5 6 7 7 7 6
5 6 5 5 4 3 2 1 1 1 2 4 3 2 3 3 4 5 5 4 5 7 7 7 7 5 5 5 5 5 4 4 4 5 5 6 6 5
5 5 5 5 4 3 2 1 1 2 3 3 3 3 3 4 4 4 4 3 3 4 4 5 6 5 5 4 5 4 4 4 5 5 5 5 5 5
5 5 5 5 6 5 3 1 1 2 2 3 3 4 3 3 3 3 4 4 4 3 3 3 4 4 6 6 6 6 6 6 6 6 6 6 6 6
5 4 4 3 3 2 3 3 2 0 1 2 3 4 4 3 3 3 4 4 3 2 2 2 2 2 3 4 8 9 8 7 7 7 7 7 7 8
5 5 5 4 3 2 3 3 2 1 1 1 2 3 4 3 3 3 3 2 2 3 3 2 2 2 3 3 9 9 9 8 8 8 8 9 9 9
5 5 4 5 6 4 2 3 3 3 1 1 2 2 3 2 2 2 2 3 3 3 2 2 2 2 3 3 9 9 9 9 9 10 10 10 10 11
5 6 6 5 7 7 2 3 4 4 5 4 3 3 3 2 0 1 2 2 2 2 2 2 2 2 2 3 6 11 10 10 10 11 11 11 11 11
4 5 7 6 7 7 2 2 3 3 3 5 5 5 5 5 4 2 1 1 1 1 2 2 2 2 2 2 3 6 8 11 13 13 13 13 12 10
3 4 5 6 6 6 3 3 2 1 2 3 3 4 4 3 3 2 1 1 1 0 2 2 2 2 3 2 3 4 4 4 7 9 13 15 14 12
3 4 4 5 5 4 3 3 1 3 1 2 3 2 2 2 2 1 0 1 2 1 1 3 3 3 4 4 4 3 4 5 5 6 6 9 14 16
3 4 4 4 3 1 2 1 3 1 1 2 3 2 2 2 1 2 3 3 3 4 3 4 5 4 5 5 5 5 5 5 6 6 6 7 7 8
1 2 5 5 3 0 2 3 1 2 2 1 2 1 1 1 2 2 2 2 2 3 4 5 5 6 6 6 6 6 6 6 6 7 7 7 8 9
5 2 1 0 1 1 1 1 1 2 1 1 0 1 1 1 1 1 2 3 3 3 3 4 6 6 7 7 7 7 7 7 7 6 7 9 9 9
6 2 1 1 1 1 1 1 1 0 0 0 1 1 1 1 2 2 3 4 3 3 3 3 4 5 7 8 9 9 8 7 7 7 9 10 10 9
4 2 1 1 1 1 1 1 1 1 1 1 1 2 2 2 3 3 3 3 4 4 4 4 5 6 7 7 5 7 8 7 8 9 9 9 10 10
3 2 1 1 1 1 2 1 1 1 2 2 2 2 3 4 4 4 4 4 5 5 6 5 6 6 7 8 8 7 10 10 9 9 10 10 10 11
2 2 2 2 2 2 2 2 3 3 3 3 3 3 4 4 4 5 4 4 6 6 7 6 4 4 7 8 9 9 8 9 10 9 11 12 12 11
3 3 3 3 3 3 3 3 3 3 3 4 4 3 4 4 5 6 6 6 6 6 7 6 6 7 8 9 10 11 11 9 10 15 17 15 12 12
3 4 4 4 4 4 4 3 4 4 4 4 4 4 4 5 5 6 7 7 7 7 8 8 7 8 9 10 10 11 13 12 11 10 10 13 20 22
Wind_Direction
325 319 308 306 290 284 268 262 260 257 244 163 111 56 68 79 72 79 83 88 91 94 92 94 97 98 100 104 109 112 115 121 136 152 157 164 169 172
341 341 328 319 309 285 270 264 263 256 249 61 80 73 65 87 84 85 90 98 92 93 93 97 101 106 113 119 124 124 127 134 138 145 154 161 166 165
356 353 345 339 328 315 291 273 260 222 173 128 88 87 86 88 89 90 99 103 102 98 97 99 107 114 121 126 126 132 134 138 141 146 153 159 161 164
6 4 359 357 352 339 325 308 165 156 159 148 121 108 91 100 103 100 98 99 102 103 103 102 105 112 120 123 123 123 127 134 142 149 154 157 164 170
10 8 7 6 5 2 359 35 110 134 145 146 138 121 112 119 120 111 106 109 114 123 123 122 117 116 120 129 137 137 143 148 153 161 165 173 179 183
19 15 11 9 7 3 21 51 109 135 151 146 138 135 124 132 136 131 129 130 124 126 114 123 132 142 149 158 158 160 170 177 183 188 189 191 195 198
24 23 28 28 19 4 4 29 117 155 154 151 144 135 133 148 146 146 134 133 128 136 146 157 164 175 174 183 187 188 195 199 203 204 205 208 213 216
20 17 32 48 55 54 47 30 10 322 155 159 148 143 147 149 145 154 148 148 142 151 170 176 184 185 189 187 169 184 200 206 209 212 215 218 222 226
17 12 19 30 15 59 111 140 109 81 275 243 145 150 151 151 159 158 151 151 124 153 189 189 200 208 215 162 162 188 201 208 214 218 222 225 229 231
25 20 19 20 14 1 71 85 88 84 92 151 113 135 133 142 175 167 153 143 153 169 193 215 196 213 213 177 171 192 204 213 220 224 226 228 232 235
38 25 15 31 7 338 51 93 98 106 95 82 66 87 91 104 205 197 181 185 167 167 195 233 221 216 210 199 179 193 206 214 221 225 228 231 233 236
55 57 43 21 5 350 26 79 91 90 103 120 129 149 152 148 176 219 237 218 185 165 166 230 241 245 233 220 208 193 207 211 217 222 225 229 229 237
32 43 45 25 16 5 360 55 55 25 110 118 123 135 144 153 169 171 252 286 305 317 158 230 265 267 270 257 248 240 238 226 216 219 221 224 223 229
17 31 45 20 12 6 29 51 331 283 142 118 112 114 124 121 110 109 48 332 334 326 299 288 280 280 279 274 271 254 248 247 248 247 239 210 219 227
18 16 339 311 282 177 134 246 259 241 92 96 98 98 94 100 155 184 188 203 218 222 222 245 260 265 273 277 278 273 269 261 255 255 254 246 243 235
238 208 232 252 247 168 192 208 218 40 31 68 83 98 118 169 209 210 221 231 233 210 203 224 245 262 267 273 275 271 267 266 261 259 262 263 258 254
334 282 263 175 140 115 96 78 102 145 155 108 104 171 187 221 234 240 254 256 254 257 240 222 220 227 247 263 271 271 272 271 268 267 264 266 262 258
308 310 358 7 21 53 68 96 128 117 3 269 270 284 279 267 273 270 263 266 272 274 275 275 268 258 250 237 232 259 268 271 273 267 268 270 272 268
274 292 329 337 340 346 342 332 339 31 334 283 276 281 281 278 274 273 274 278 281 283 283 280 277 276 280 283 255 232 263 279 280 276 271 271 274 276
253 287 298 299 300 311 315 317 306 281 259 271 280 282 281 281 283 284 285 290 291 289 284 277 275 282 292 301 300 279 241 258 271 278 281 281 277 271
281 283 290 292 294 292 287 284 283 282 283 286 282 280 282 282 286 288 287 283 278 279 282 284 296 279 281 277 275 276 273 238 243 261 277 280 281 279
281 288 291 291 284 277 269 263 258 260 260 258 265 271 276 280 283 285 290 288 281 282 288 289 279 268 269 273 280 285 286 282 254 237 241 252 270 280
277 282 277 269 265 263 270 271 272 272 271 272 273 272 275 277 280 280 279 281 285 288 289 289 288 283 283 284 285 286 288 288 285 281 267 241 233 244